Location: Bednik
(45.3500°N, 16.3833°E)
Time: 21:40:27
(UTC+00:00)

SWAS - Pass Details

Date: 08 August 2020
Orbit: 579 x 592 km, 69.9° (Epoch: 21 September)

Event Time Altitude Azimuth Distance (km) Brightness Sun altitude
Rises 19:42:51 0° 202° (SSW) 2,802 7.7 -14.3°
Reaches altitude 10° 19:45:04 10° 200° (SSW) 1,908 6.9 -14.6°
Maximum altitude 19:49:20 76° 115° (ESE) 612 4.3 -15.1°
Drops below altitude 10° 19:53:39 10° 30° (NNE) 1,929 7.2 -15.7°
Sets 19:55:54 0° 29° (NNE) 2,836 8.1 -16.0°
